Flag for Qatar Weather past 2 weeks in Al Khor, Qatar

Now
66 °F

Clear.


Feels Like: 66 °F
Forecast: 63 / 72 °F
Wind: 9 mph from Northwest

Location: Doha International Airport

Current Time: Dec 18, 2014 at 7:15:00 AM

Latest Report: Dec 18, 2014 at 5:00 AM


Visibility: 5 mi

Pressure: 30.18 "Hg

Humidity: 78%

Dew point: 59 °F

Location of Al KhorLocation

Historic Weather in Al Khor — Graph

°F

Al Khor temperature yesterday

Maximum temperature yesterday: 79 °F (at 1:30 PM)
Minimum temperature yesterday: 68 °F (at 4:00 AM)
Average temperature yesterday: 73 °F

Past Weeks' High & Low Weather Summary

 TemperatureHumidityPressure
High82 °F (Dec 11, 1:30 PM)100% (Dec 11, 3:00 AM)30.24 "Hg (Dec 11, 3:00 AM)
Low63 °F (Dec 11, 3:00 AM)28% (Dec 11, 1:30 PM)30.04 "Hg (Dec 11, 2:00 PM)
Average72 °F72%30.13 "Hg
* Reported Dec 3 5:00 AM — Dec 18 5:00 AM, Al Khor, Weather by CustomWeather, © 2014

Note: Actual official high and low records may vary slightly from our data, if they occured in-between our weather recording intervals... More about our weather records

Advertising

Al Khor weather history for previous 24 hours

 ConditionsComfort  
Time TempWeatherWind HumidityBarometerVisibility
5:00 AM
Dec 18
66 °FClear.9 mph78%30.18 "Hg5 mi
4:00 AM66 °FClear.12 mph78%30.15 "Hg5 mi
3:00 AM68 °FClear.12 mph73%30.18 "Hg5 mi
2:00 AM68 °FClear.8 mph78%30.18 "Hg6 mi
1:30 AM68 °FPassing clouds.12 mph78%30.18 "HgN/A
1:00 AM70 °FPassing clouds.8 mph73%30.18 "HgN/A
12:00 AM70 °FPassing clouds.10 mph73%30.21 "HgN/A
11:30 PM
Dec 17
70 °FPassing clouds.8 mph73%30.21 "HgN/A
11:00 PM70 °FPassing clouds.7 mph78%30.21 "HgN/A
10:00 PM72 °FPassing clouds.8 mph73%30.21 "HgN/A
9:30 PM72 °FClear.12 mph73%30.21 "Hg10 mi
9:00 PM72 °FPassing clouds.10 mph73%30.21 "HgN/A
8:00 PM72 °FClear.12 mph73%30.18 "Hg10 mi
7:00 PM72 °FPassing clouds.12 mph73%30.18 "HgN/A
6:00 PM73 °FPassing clouds.13 mph74%30.15 "HgN/A
5:00 PM73 °FPassing clouds.6 mph69%30.15 "HgN/A
4:30 PM73 °FPassing clouds.10 mph69%30.15 "HgN/A
4:00 PM75 °FPassing clouds.9 mph61%30.12 "HgN/A
3:00 PM79 °FPassing clouds.10 mph45%30.12 "HgN/A
2:00 PM79 °FPassing clouds.9 mph42%30.12 "HgN/A
1:30 PM79 °FPassing clouds.7 mph42%30.15 "HgN/A
1:00 PM77 °FPassing clouds.8 mph42%30.15 "HgN/A
12:30 PM77 °FPassing clouds.7 mph44%30.15 "HgN/A
12:00 PM75 °FPassing clouds.7 mph50%30.18 "HgN/A
11:00 AM75 °FPartly sunny.8 mph61%30.21 "HgN/A
10:00 AM75 °FScattered clouds.9 mph65%30.21 "Hg6 mi
9:00 AM73 °FScattered clouds.5 mph74%30.21 "Hg5 mi
8:00 AM72 °FClear.6 mph78%30.21 "Hg5 mi
7:30 AM70 °FClear.5 mph83%30.18 "Hg5 mi
Weather by CustomWeather, © 2014

See weather overviewHow to use our weather pages